Tracking 29892 objects as of 21-Nov-2024
HD Live streaming from Space Station
objects crossing your sky now

ELECTRON KICK STAGE R/B

Track ELECTRON KICK STAGE R/B now!
10-day predictions


NORAD ID: 45728
Int'l Code: 2020-037F
Perigee: 548.1 km
Apogee: 559.5 km
Inclination: 97.8 °
Period: 95.6 minutes
Semi major axis: 6924 km
RCS: Unknown
Launch date: June 13, 2020
Source: United States (US)
Launch site: Rocket Lab Launch Complex (RLLC)

Note: This is a ROCKET BODY
Your satellite tracking list
Your tracking list is empty




NASA's NSSDC Master Catalog

Two Line Element Set (TLE):
1 45728U 20037F   24325.58648378  .00014023  00000-0  94970-3 0  9995
2 45728  97.7783 146.8134 0008239 307.9162  52.1320 15.06577250 31416
Source of the keplerian elements: AFSPC